Погода в Колонтаевке

Россия / Курская область     51°33′37″N   35°07′25″E
В апреле 2022 года жителям России запретили посещать сайт meteo.paraplan.net по решению Генеральной прокуратуры. Аудитория сайта уменьшилась в 10 раз. Владельцы сайта не видят смысла в поддержке погодного сервера в таких условиях. Сайт будет закрыт в октябре.
темп.,
°C
ветер,
м/с
пор.,
м/с
влажн.,
%
обл.,
%
осадки,
мм/ч
давл.,
гПа
погр.,
м
4 октября, вт
вт400:00+9ю91580100 0.0 10031025
03:00+10ю91577100 0.1 1004994
06:00+7юз71289100 1.9 10061069
09:00+7ююз61185100 2.3 1008970
12:00+9ююз81280100 0.2 10091146
15:00+9юз71182100 0.6 10111214
18:00+7юз61285100 0.4 1012838
21:00+8ююз61191100 0.8 1013984
5 октября, ср
ср500:00+7ююз61294100 0.3 1014495
03:00+8зюз51090100 1.1 1014596
06:00+8зюз5992100 0.3 1015570
09:00+8зюз5994100 0.7 1017710
12:00+9з5881100 0.5 1019928
15:00+11зсз697089 1.1 10201293
18:00+9з4982100 0.1 1021506
21:00+8зюз51190100 0.3 1022490
6 октября, чт
чт600:00+9з41090100 0.1 1022425
03:00+8зюз41093100 0.1 1023320
06:00+9зюз4990100 0.0 1022287
09:00+10зюз488751 0.0 1022314
12:00+14зюз566938 0.0 1022766
15:00+14зюз477360 0.0 1022558
18:00+11юз35845 0.0 102290
21:00+10юз37895 0.0 1023129
7 октября, пт
пт700:00+9зюз37927 0.0 1023122
03:00+9з369343 0.0 1023107
06:00+8зсз37955 0.0 1024124
09:00+11сз488999 0.0 1025294
12:00+15ссз57660 0.0 1026728
15:00+16ссз56534 0.0 1026935
18:00+12ссз33700 0.0 102726
21:00+10с33810 0.0 102840
8 октября, сб
сб800:00+9ссв22870 0.0 102819
03:00+8в22890 0.0 102811
06:00+7вюв22900 0.0 102715
09:00+10юв24815 0.0 1027156
12:00+14ююв34605 0.0 1025594
15:00+16ююв34525 0.0 1023864
18:00+13ююв22685 0.0 102218
21:00+11ююв237823 0.0 102227